Location: Unspecified
(0.0000°N, 0.0000°E)
Time: 09:11:01
(UTC+01:00)

Transit 2A - Visible Passes

Search period start: 24 March 2017 00:00
Search period end: 03 April 2017 01:00
Orbit: 602 x 957 km, 66.7° (Epoch: 22 March)

Date Brightness Start Highest point End Pass type
(mag) Time Alt. Az. Time Alt. Az. Time Alt. Az.
24 Mar 6.0 05:56:17 10° SSW 06:01:53 60° WNW 06:06:55 10° N visible
25 Mar 6.0 05:24:56 28° SSW 05:27:57 81° ESE 05:33:04 10° NNE visible
26 Mar 6.9 05:54:21 47° E 05:54:21 47° E 05:58:54 10° NE visible
26 Mar 7.9 07:35:53 10° W 07:36:41 10° WNW 07:37:27 10° WNW visible
27 Mar 8.5 05:23:10 16° ENE 05:23:10 16° ENE 05:24:22 10° NE visible
27 Mar 7.5 07:03:47 18° WNW 07:03:47 18° WNW 07:06:16 10° NNW visible
28 Mar 7.8 06:32:10 16° NNW 06:32:10 16° NNW 06:33:20 10° N visible
